sat.trackr.live / text

‹ back to catalog

COSMOS 2024 (ETALON 2)

NORAD 20026 · 1989-039C

PAYLOAD ACTIVE UNKNOWN

§ Identity

Operator
Country
CIS
Launch date
1989-05-31
Launch site
TYMSC
Launch vehicle
Mass (kg)
RCS (m²)
1.03

Purposes: science

External: N2YO · Heavens-Above · Gunter

§ Orbital elements

Epoch: 2026-09-19T09:00:22.955616Z

Period
675.41 min
Inclination
64.8728°
Eccentricity
0.0020884
Mean motion
2.13204769 rev/d
Perigee alt
19,068.4 km
Apogee alt
19,174.9 km
Semi-major
25,499.8 km
B*
0.0000e+0
RAAN
307.2858°
Arg perigee
212.1962°
Mean anomaly
202.8066°
Rev number
29,051

§ Raw data

COSMOS 2024 (ETALON 2)1 20026U 89039C   26262.37526569 -.00000022  00000+0  00000+0 0  99932 20026  64.8728 307.2858 0020884 212.1962 202.8066  2.13204769290510

JSON: /api/v1/satellites/20026 · /tle

For live sub-satellite position, see the globe view (requires WebGL).

§ Visibility from observer

Set your observer location to see the next 7 days of passes ≥ 10°. The values pass through the URL so the page stays shareable.

No JS? Fill the form by hand. The geolocation button needs JavaScript.